Weather History for KARV - April, 2014

Change the Weather History Date:

Friday, April 18, 2014

  Actual Average Record
Temperature  
Mean Temperature 34 °F -  
Max Temperature 51 °F 52 °F 77 °F (1927)
Min Temperature 17 °F 28 °F 8 °F (1983)
Degree Days  
Heating Degree Days 31    
Moisture  
Dew Point 22 °F    
Average Humidity 62    
Maximum Humidity 87    
Minimum Humidity 30    
Precipitation  
Precipitation 0.00 in - - ()
Sea Level Pressure  
Sea Level Pressure 30.33 in    
Wind  
Wind Speed 4 mph (NNE)    
Max Wind Speed 10 mph    
Max Gust Speed 9 mph    
Visibility 9 miles    
Events Fog    
Averages and records for this station are not official NWS values.
T = Trace of Precipitation, MM = Missing Value Source: NWS Daily Summary

Daily Weather History Graph

Daily Weather History Graph

Search for Another Location

Airport or City:

Trip Planner

Search our weather history database for the weather conditions in past years. The results will help you decide how hot, cold, wet, or windy it might be!

Date:

Astronomy

Apr. 18, 2014 Rise Set
Actual Time 6:07 AM CDT 7:49 PM CDT
Civil Twilight 5:35 AM CDT 8:21 PM CDT
Nautical Twilight 4:57 AM CDT 9:00 PM CDT
Astronomical Twilight 4:15 AM CDT 9:41 PM CDT
Moon 11:42 PM CDT (4/18) 8:22 AM CDT (4/18)
Length of Visible Light 14h 45m
Length of Day
13h 42m
Waning Gibbous, 87% of the Moon is Illuminated
Apr 18
Waning Gibbous
Apr 22
Last Quarter
Apr 29
New
May 6
First Quarter
May 14
Full

Hourly Weather History & Observations

Time (CDT) Temp. Windchill Dew Point Humidity Pressure Visibility Wind Dir Wind Speed Gust Speed Precip Events Conditions
12:15 AM 32.7 °F 26.4 °F 28.4 °F 84% 30.27 in 10.0 mi NW 6.9 mph - N/A   Overcast
12:35 AM 32.0 °F 25.6 °F 26.2 °F 79% 30.27 in 10.0 mi NW 6.9 mph - N/A   Overcast
12:55 AM 32.0 °F 26.4 °F 26.4 °F 80% 30.27 in 10.0 mi NNW 5.8 mph - N/A   Overcast
1:15 AM 31.8 °F 24.6 °F 25.0 °F 76% 30.27 in 10.0 mi NNW 8.1 mph - N/A   Overcast
1:35 AM 31.8 °F 28.5 °F 25.2 °F 76% 30.27 in 10.0 mi NNW 3.5 mph - N/A   Mostly Cloudy
1:55 AM 31.8 °F - 25.9 °F 79% 30.27 in 10.0 mi Calm Calm - N/A   Clear
2:15 AM 26.6 °F - 21.2 °F 80% 30.27 in 10.0 mi Calm Calm - N/A   Clear
2:35 AM 24.3 °F - 18.9 °F 80% 30.27 in 10.0 mi Calm Calm - N/A   Clear
2:55 AM 22.8 °F - 17.8 °F 81% 30.27 in 10.0 mi Calm Calm - N/A   Clear
3:15 AM 21.9 °F - 16.7 °F 80% 30.27 in 10.0 mi Calm Calm - N/A   Clear
3:35 AM 21.7 °F - 16.7 °F 81% 30.27 in 10.0 mi Calm Calm - N/A   Clear
3:55 AM 21.7 °F - 16.7 °F 81% 30.27 in 0.2 mi Calm Calm - N/A   Haze
4:15 AM 19.6 °F - 14.9 °F 82% 30.28 in 0.5 mi Calm Calm - N/A Fog Light Freezing Fog
4:35 AM 21.7 °F - 17.4 °F 83% 30.28 in 0.5 mi Calm Calm - N/A Fog Light Freezing Fog
4:55 AM 19.4 °F - 15.4 °F 85% 30.29 in 2.0 mi Calm Calm - N/A   Clear
5:15 AM 19.2 °F - 15.4 °F 85% 30.29 in 0.2 mi Calm Calm - N/A Fog Light Freezing Fog
5:35 AM 19.2 °F - 15.6 °F 86% 30.30 in 0.2 mi Calm Calm - N/A Fog Light Freezing Fog
5:55 AM 19.2 °F - 15.6 °F 86% 30.30 in 0.5 mi Calm Calm - N/A Fog Light Freezing Fog
6:15 AM 19.2 °F - 15.6 °F 86% 30.31 in 2.0 mi Calm Calm - N/A   Clear
6:35 AM 17.4 °F - 13.6 °F 85% 30.31 in 0.2 mi Calm Calm - N/A Fog Light Freezing Fog
6:55 AM 19.2 °F - 15.6 °F 86% 30.32 in 0.2 mi Calm Calm - N/A Fog Light Freezing Fog
7:15 AM 23.0 °F - 19.4 °F 86% 30.32 in 0.2 mi Calm Calm - N/A Fog Light Freezing Fog
7:35 AM 25.5 °F - 21.7 °F 86% 30.32 in 10.0 mi Calm Calm - N/A   Clear
7:55 AM 26.6 °F 22.6 °F 23.0 °F 86% 30.33 in 10.0 mi North 3.5 mph - N/A   Clear
8:15 AM 28.8 °F 23.7 °F 25.2 °F 86% 30.34 in 10.0 mi North 4.6 mph - N/A   Scattered Clouds
8:35 AM 30.0 °F 26.5 °F 26.6 °F 87% 30.34 in 10.0 mi North 3.5 mph - N/A   Mostly Cloudy
8:55 AM 31.8 °F 27.3 °F 27.9 °F 85% 30.35 in 10.0 mi North 4.6 mph - N/A   Overcast
9:15 AM 32.0 °F 27.5 °F 25.9 °F 78% 30.35 in 10.0 mi North 4.6 mph - N/A   Overcast
9:35 AM 35.8 °F 31.9 °F 28.6 °F 75% 30.36 in 10.0 mi NNW 4.6 mph - N/A   Overcast
9:55 AM 36.5 °F 31.0 °F 26.6 °F 67% 30.36 in 10.0 mi North 6.9 mph - N/A   Overcast
10:15 AM 36.5 °F 31.8 °F 25.2 °F 64% 30.36 in 10.0 mi North 5.8 mph - N/A   Mostly Cloudy
10:35 AM 37.9 °F 32.1 °F 25.0 °F 60% 30.37 in 10.0 mi North 8.1 mph - N/A   Mostly Cloudy
10:55 AM 39.2 °F 34.2 °F 25.3 °F 58% 30.37 in 10.0 mi NNW 6.9 mph - N/A   Scattered Clouds
11:15 AM 41.0 °F 35.2 °F 25.2 °F 53% 30.37 in 10.0 mi North 9.2 mph - N/A   Scattered Clouds
11:35 AM 41.5 °F 37.8 °F 25.9 °F 54% 30.37 in 10.0 mi NNW 5.8 mph - N/A   Scattered Clouds
11:55 AM 42.6 °F 38.4 °F 25.2 °F 50% 30.37 in 10.0 mi NW 6.9 mph - N/A   Scattered Clouds
12:15 PM 41.9 °F 37.5 °F 23.4 °F 48% 30.37 in 10.0 mi North 6.9 mph - N/A   Scattered Clouds
12:35 PM 43.5 °F 39.4 °F 23.7 °F 46% 30.37 in 10.0 mi North 6.9 mph - N/A   Clear
12:55 PM 42.8 °F - 23.2 °F 46% 30.36 in 10.0 mi Calm Calm - N/A   Clear
1:15 PM 44.4 °F 40.0 °F 22.5 °F 42% 30.36 in 10.0 mi North 8.1 mph - N/A   Clear
1:35 PM 44.8 °F 41.0 °F 24.1 °F 44% 30.36 in 10.0 mi North 6.9 mph - N/A   Clear
1:55 PM 44.4 °F 40.5 °F 21.4 °F 40% 30.36 in 10.0 mi NNW 6.9 mph - N/A   Clear
2:15 PM 48.7 °F - 23.2 °F 37% 30.36 in 10.0 mi NE 5.8 mph - N/A   Clear
2:35 PM 45.3 °F 41.1 °F 20.8 °F 38% 30.37 in 10.0 mi NNW 8.1 mph - N/A   Clear
2:55 PM 45.5 °F - 19.0 °F 35% 30.36 in 10.0 mi Calm Calm - N/A   Clear
3:15 PM 47.7 °F - 20.1 °F 34% 30.35 in 10.0 mi North 10.4 mph - N/A   Clear
3:35 PM 45.9 °F - 19.9 °F 36% 30.35 in 10.0 mi Calm Calm - N/A   Clear
3:55 PM 45.1 °F 43.7 °F 16.9 °F 32% 30.34 in 10.0 mi North 3.5 mph 9.2 mph N/A   Clear
4:15 PM 49.3 °F - 18.7 °F 30% 30.34 in 10.0 mi Calm Calm - N/A   Clear
4:35 PM 48.7 °F - 20.3 °F 33% 30.34 in 10.0 mi NNE 3.5 mph - N/A   Clear
4:55 PM 51.6 °F - 22.5 °F 32% 30.34 in 10.0 mi Calm Calm - N/A   Clear
5:15 PM 46.8 °F - 18.3 °F 32% 30.34 in 10.0 mi North 6.9 mph - N/A   Clear
5:35 PM 45.3 °F - 18.3 °F 34% 30.34 in 10.0 mi Calm Calm - N/A   Clear
5:55 PM 45.7 °F 44.4 °F 20.1 °F 36% 30.34 in 10.0 mi NE 3.5 mph - N/A   Clear
6:15 PM 44.8 °F - 19.9 °F 37% 30.34 in 10.0 mi Calm Calm - N/A   Clear
6:35 PM 44.6 °F 43.1 °F 20.3 °F 38% 30.34 in 10.0 mi ENE 3.5 mph - N/A   Clear
6:55 PM 44.1 °F 41.5 °F 21.2 °F 40% 30.34 in 10.0 mi ESE 4.6 mph - N/A   Clear
7:15 PM 42.1 °F 38.4 °F 20.8 °F 43% 30.34 in 10.0 mi ESE 5.8 mph - N/A   Clear
7:35 PM 41.5 °F - 20.8 °F 44% 30.34 in 10.0 mi Calm Calm - N/A   Clear
7:55 PM 38.3 °F - 18.5 °F 45% 30.34 in 10.0 mi Calm Calm - N/A   Clear
8:15 PM 36.5 °F - 19.2 °F 50% 30.34 in 10.0 mi Calm Calm - N/A   Clear
8:35 PM 36.5 °F 33.9 °F 20.3 °F 52% 30.34 in 10.0 mi East 3.5 mph - N/A   Clear
8:55 PM 36.5 °F 33.9 °F 22.8 °F 58% 30.34 in 10.0 mi East 3.5 mph - N/A   Clear
9:15 PM 34.0 °F 29.8 °F 22.8 °F 64% 30.34 in 10.0 mi East 4.6 mph - N/A   Clear
9:35 PM 34.0 °F 29.8 °F 23.0 °F 64% 30.34 in 10.0 mi East 4.6 mph - N/A   Clear
9:55 PM 34.0 °F 28.8 °F 23.9 °F 67% 30.33 in 10.0 mi East 5.8 mph - N/A   Clear
10:15 PM 34.0 °F 28.8 °F 23.5 °F 66% 30.34 in 10.0 mi ESE 5.8 mph - N/A   Clear
10:35 PM 34.0 °F 28.8 °F 24.4 °F 68% 30.35 in 10.0 mi SE 5.8 mph - N/A   Clear
10:55 PM 33.4 °F 28.1 °F 23.5 °F 67% 30.34 in 10.0 mi SE 5.8 mph - N/A   Clear
11:15 PM 34.0 °F 28.0 °F 25.3 °F 71% 30.33 in 10.0 mi ESE 6.9 mph - N/A   Clear
11:35 PM 34.0 °F 27.2 °F 24.8 °F 69% 30.33 in 10.0 mi SE 8.1 mph - N/A   Clear
11:55 PM 34.0 °F 26.6 °F 24.8 °F 69% 30.34 in 10.0 mi SE 9.2 mph - N/A   Scattered Clouds